[[{"header":{"parameterUnit":"m.s-1","parameterCategory":1,"la1":30.2991,"la2":30.254,"lo1":-89.0895,"lo2":-89.0444,"dy":0.0017,"dx":0.0017,"nx":28,"ny":28,"refTime":"2023-08-01T09:00:00:Z","depth":0,"parameterNumber":2,"parameterNumberName":"U-component_of_WINDS"},"data":[0,0,0,0,0,0,0,0,0,0,0,0,0,0,0,0,0,0,0,0,0,0,0,0,0,0,0,0,0,0,0,0,0,0,0,0,0,0,0,0,0,0,0,0,0,0,0,0,0,0,0,0,0,0,0,0,0,0,2.3066,2.3066,0,2.3099,2.31,2.31,2.3015,2.3013,2.301,2.3007,2.3044,2.3047,2.3051,0,0,0,0,0,0,0,0,0,0,0,0,0,2.2929,2.2932,2.3066,2.3066,2.3067,2.3099,2.31,2.31,2.3016,2.3013,2.3009,2.3006,2.3043,2.3047,2.3051,0,0,0,0,0,0,0,0,0,0,0,0,0,2.2978,2.2933,2.3066,2.3028,2.3025,2.3099,2.31,2.31,2.3016,2.3012,2.3008,2.3005,2.3041,2.3046,2.3052,2.3164,0,0,2.3067,2.307,0,0,0,0,0,0,0,0,2.2975,2.2983,2.3033,2.3031,2.3028,2.3049,2.3065,2.3122,2.3017,2.302,2.3007,2.3003,2.3049,2.3053,2.3068,2.3165,2.3167,2.3068,2.3071,2.3073,2.3075,0,0,0,0,0,0,0,2.2972,2.2981,2.3079,2.3034,2.3031,2.301,2.3013,2.3075,2.3057,2.3019,2.3013,2.3018,2.3047,2.3064,2.3069,2.3168,2.3068,2.3072,2.3076,2.3078,2.3357,2.3361,0,0,0,0,0,0,2.2973,2.2979,2.3078,2.308,2.2991,2.3016,2.3019,2.3046,2.3056,2.3053,2.3022,2.3014,2.3057,2.3063,2.307,2.3201,2.3073,2.3078,2.3081,2.3352,2.3357,2.3362,0,0,0,0,0,0,2.2971,2.2983,2.3077,2.3028,2.3038,2.3022,2.3054,2.3049,2.3066,2.3057,2.3054,2.3043,2.3054,2.3062,2.314,2.3201,2.308,2.3085,2.3347,2.3354,2.336,2.3465,0,0,0,0,0,0,2.2967,2.2983,2.3025,2.3029,2.3041,2.3147,2.3058,2.3053,2.3075,2.3065,2.3076,2.3074,2.3051,2.3133,2.3146,2.3206,2.3089,2.3342,2.335,2.3358,2.3456,2.3475,2.349,0,0,0,0,0,2.2963,2.3054,2.3028,2.304,2.3094,2.3151,2.3158,2.3129,2.308,2.3123,2.3117,2.3073,2.3192,2.3142,2.3155,2.3218,2.3338,2.3348,2.3357,2.3449,2.3471,2.349,0,0,0,0,0,0,2.3059,2.3054,2.3025,2.3121,2.3137,2.3137,2.319,2.3154,2.3185,2.3175,2.3139,2.3142,2.3227,2.323,2.3174,2.3326,2.3257,2.3269,2.3322,2.3343,2.3359,2.3357,2.3094,0,0,0,0,0,2.3091,2.3138,2.3131,2.3216,2.3226,2.3207,2.323,2.3207,2.3222,2.3229,2.3229,2.3246,2.3286,2.3314,2.3352,2.3456,2.3456,2.3505,2.3522,2.3536,2.3548,2.3602,2.3624,2.3394,2.3394,2.3394,0,0,2.3159,2.3162,2.3194,2.3236,2.3245,2.3294,2.3213,2.3268,2.3304,2.3237,2.3311,2.3311,2.3328,2.3419,2.3459,2.3424,2.3611,2.3548,2.3559,2.3564,2.3614,2.3636,2.3656,2.34,2.3399,2.3398,0,0,2.3308,2.3315,2.3386,2.3396,2.3411,2.3397,2.3415,2.3419,2.3417,2.3489,2.344,2.3482,2.3553,2.3567,2.3583,2.3733,2.3694,2.3746,2.3835,2.3889,2.3907,2.3922,2.3976,2.3996,2.3758,2.3758,2.3758,0,2.3391,2.3462,2.3427,2.3486,2.3505,2.3445,2.3517,2.3529,2.3556,2.3571,2.3531,2.3618,2.3624,2.3718,2.3754,2.3769,2.3787,2.3746,2.3907,2.3922,2.3937,2.3987,2.4008,2.3764,2.3764,2.3763,2.3762,0,2.3562,2.3612,2.3668,2.3694,2.372,2.3785,2.376,2.379,2.3763,2.3754,2.3828,2.3833,2.387,2.389,2.3865,2.398,2.3957,2.3913,2.3842,2.3965,2.4012,2.4032,2.3773,2.3771,2.3769,2.3768,0,0,2.3776,2.378,2.3801,2.3811,2.3822,2.386,2.3921,2.3956,2.3982,2.4002,2.4053,2.4113,2.4071,2.4089,2.4065,2.4112,2.423,2.4061,2.4061,2.4093,2.4356,2.4391,2.4414,2.4203,2.4207,2.421,2.4355,0,2.3923,2.4028,2.3997,2.4103,2.4148,2.409,2.4143,2.4156,2.4147,2.4185,2.4175,2.4219,2.416,2.417,2.4214,2.4207,2.4283,2.4196,2.4251,2.4253,2.425,2.4438,2.4475,2.4612,2.4373,2.4376,2.4378,0,2.4109,2.4134,2.4244,2.4245,2.4263,2.4312,2.434,2.4376,2.4388,2.4379,2.4398,2.4364,2.4424,2.4351,2.4433,2.4375,2.4395,2.4395,2.4399,2.4404,2.4325,2.445,2.4655,2.4676,2.4407,2.4405,2.4403,0,2.4254,2.4316,2.4389,2.44,2.4403,2.4438,2.4441,2.4449,2.4471,2.4496,2.451,2.4541,2.4559,2.4584,2.4559,2.4509,2.4645,2.457,2.4639,2.464,2.4672,2.4671,2.4885,2.4684,2.4683,2.4683,2.4682,0,2.4423,2.4492,2.4454,2.45,2.4575,2.4539,2.4615,2.4611,2.4618,2.4661,2.4613,2.4654,2.4618,2.4656,2.4637,2.4707,2.4716,2.471,2.4704,2.4715,2.4716,2.4729,2.4719,2.4688,2.4687,2.4686,2.4685,0,2.4599,2.4576,2.4652,2.4648,2.4648,2.4704,2.47,2.4742,2.4729,2.4784,2.4795,2.4775,2.4818,2.4794,2.4838,2.4825,2.4917,2.4897,2.4913,2.4908,2.4978,2.4972,2.5209,2.5238,2.5018,2.502,2.5021,0,2.4709,2.476,2.4761,2.4786,2.4792,2.4833,2.4854,2.4819,2.4844,2.486,2.49,2.4937,2.4966,2.5036,2.5026,2.5059,2.5041,2.5121,2.5046,2.5055,2.5043,2.504,2.5045,2.5137,2.514,2.5142,2.5144,0,2.4906,2.4891,2.4924,2.4952,2.4979,2.5,2.5017,2.504,2.5005,2.5035,2.5077,2.5099,2.5143,2.5181,2.5209,2.5212,2.5173,2.5167,2.5185,2.5197,2.5204,2.5202,2.4955,2.5163,2.5161,2.5159,2.5158,2.5158,2.5053,2.5095,2.5102,2.5139,2.5148,2.5164,2.5202,2.5193,2.5227,2.5259,2.5236,2.5286,2.5294,2.5327,2.5335,2.5373,2.5341,2.5367,2.5373,2.5381,2.539,2.5197,2.5378,2.5377,2.5377,2.5376,2.5376,0,2.5248,2.5248,2.5283,2.5307,2.5336,2.5294,2.531,2.5338,2.5382,2.5392,2.5421,2.5468,2.5504,2.5496,2.5528,2.556,2.5543,2.557,2.5568,2.5569,2.5417,2.5399,2.5583,2.5583,2.5583,2.5583,2.5583,2.5583,2.5353,2.5423,2.5408,2.5482,2.5481,2.5529,2.5541,2.5556,2.5564,2.5619,2.5648,2.5641,2.5644,2.5676,2.5707,2.5703,2.5717,2.5751,2.5742,2.56,2.558,2.556,2.5543,2.5755,2.5755,2.589,2.5891,2.5892]},{"header":{"parameterUnit":"m.s-1","parameterCategory":1,"la1":30.2991,"la2":30.254,"lo1":-89.0895,"lo2":-89.0444,"dy":0.0017,"dx":0.0017,"nx":28,"ny":28,"refTime":"2023-08-01T09:00:00:Z","depth":0,"parameterNumber":3,"parameterNumberName":"V-component_of_WINDS"},"data":[0,0,0,0,0,0,0,0,0,0,0,0,0,0,0,0,0,0,0,0,0,0,0,0,0,0,0,0,0,0,0,0,0,0,0,0,0,0,0,0,0,0,0,0,0,0,0,0,0,0,0,0,0,0,0,0,0,0,-0.4922,-0.4923,0,-0.4999,-0.5,-0.5001,-0.504,-0.504,-0.504,-0.504,-0.5121,-0.5123,-0.5125,0,0,0,0,0,0,0,0,0,0,0,0,0,-0.4808,-0.481,-0.4922,-0.4923,-0.4924,-0.4999,-0.5,-0.5001,-0.504,-0.504,-0.504,-0.504,-0.512,-0.5123,-0.5125,0,0,0,0,0,0,0,0,0,0,0,0,0,-0.4869,-0.4811,-0.4921,-0.4952,-0.4955,-0.4999,-0.5,-0.5002,-0.504,-0.504,-0.504,-0.504,-0.5119,-0.5122,-0.5126,-0.5146,0,0,-0.5136,-0.5137,0,0,0,0,0,0,0,0,-0.4865,-0.4873,-0.4946,-0.495,-0.4954,-0.501,-0.499,-0.505,-0.504,-0.5008,-0.504,-0.504,-0.5084,-0.509,-0.5105,-0.5149,-0.5153,-0.5136,-0.5138,-0.5139,-0.514,0,0,0,0,0,0,0,-0.4861,-0.487,-0.4952,-0.4947,-0.4952,-0.4962,-0.4971,-0.5002,-0.5045,-0.5011,-0.5014,-0.5022,-0.5086,-0.5102,-0.5107,-0.5154,-0.5136,-0.5139,-0.5141,-0.5142,-0.522,-0.522,0,0,0,0,0,0,-0.4852,-0.4866,-0.495,-0.4955,-0.4909,-0.4964,-0.4974,-0.4992,-0.5045,-0.5053,-0.5022,-0.5024,-0.5096,-0.5103,-0.511,-0.5138,-0.5139,-0.5142,-0.5144,-0.522,-0.522,-0.5221,0,0,0,0,0,0,-0.4849,-0.4859,-0.4947,-0.4911,-0.4923,-0.4966,-0.4986,-0.4993,-0.5009,-0.5053,-0.5062,-0.503,-0.5096,-0.5105,-0.5137,-0.5141,-0.5144,-0.5147,-0.522,-0.522,-0.522,-0.5192,0,0,0,0,0,0,-0.4846,-0.4858,-0.4865,-0.4911,-0.4925,-0.4971,-0.4986,-0.4995,-0.5014,-0.5017,-0.5063,-0.507,-0.5097,-0.5132,-0.514,-0.5145,-0.5149,-0.522,-0.522,-0.522,-0.5193,-0.5192,-0.519,0,0,0,0,0,-0.4842,-0.4854,-0.4865,-0.4875,-0.4935,-0.4972,-0.498,-0.5009,-0.5014,-0.5023,-0.5052,-0.5069,-0.5139,-0.5134,-0.5144,-0.5151,-0.522,-0.522,-0.522,-0.5194,-0.5192,-0.519,0,0,0,0,0,0,-0.4808,-0.4861,-0.4874,-0.4901,-0.4932,-0.4978,-0.4989,-0.5006,-0.5036,-0.5038,-0.5074,-0.5084,-0.5112,-0.5135,-0.5129,-0.5173,-0.5181,-0.5183,-0.5158,-0.5156,-0.5155,-0.5149,-0.5152,0,0,0,0,0,-0.4804,-0.4828,-0.4873,-0.4894,-0.4908,-0.4946,-0.4963,-0.4983,-0.5016,-0.5029,-0.506,-0.5092,-0.5122,-0.514,-0.517,-0.5197,-0.5208,-0.5206,-0.5205,-0.5203,-0.5205,-0.5222,-0.5222,-0.5222,-0.5222,-0.5222,0,0,-0.4795,-0.4827,-0.484,-0.4888,-0.4913,-0.4939,-0.4956,-0.4982,-0.5002,-0.5034,-0.5065,-0.5089,-0.5127,-0.5156,-0.5171,-0.5176,-0.5207,-0.5204,-0.5202,-0.5205,-0.5222,-0.5222,-0.5222,-0.5222,-0.5222,-0.5222,0,0,-0.4793,-0.4819,-0.4839,-0.4865,-0.4904,-0.4929,-0.4934,-0.4978,-0.4995,-0.5027,-0.5051,-0.5075,-0.5125,-0.5151,-0.5171,-0.518,-0.5197,-0.5188,-0.5181,-0.5197,-0.5197,-0.5197,-0.5201,-0.5202,-0.519,-0.519,-0.519,0,-0.4777,-0.4816,-0.4847,-0.4872,-0.4892,-0.4922,-0.4943,-0.4967,-0.5014,-0.5027,-0.5032,-0.5096,-0.5123,-0.516,-0.5162,-0.5177,-0.5184,-0.5183,-0.5195,-0.5195,-0.5196,-0.52,-0.5201,-0.5188,-0.5189,-0.5189,-0.5189,0,-0.4796,-0.4822,-0.4834,-0.4878,-0.49,-0.4922,-0.4958,-0.4976,-0.4995,-0.502,-0.5053,-0.5087,-0.5125,-0.5135,-0.5153,-0.5174,-0.5176,-0.5187,-0.5196,-0.5194,-0.5198,-0.52,-0.5187,-0.5187,-0.5187,-0.5188,0,0,-0.4774,-0.4835,-0.4839,-0.486,-0.4905,-0.4927,-0.4951,-0.4987,-0.5003,-0.5034,-0.5056,-0.5098,-0.5109,-0.5131,-0.5154,-0.5168,-0.5173,-0.5177,-0.5179,-0.5176,-0.5199,-0.5191,-0.5192,-0.5185,-0.5186,-0.5186,-0.5196,0,-0.4778,-0.4823,-0.4852,-0.4886,-0.4911,-0.494,-0.4962,-0.4992,-0.5017,-0.5043,-0.507,-0.5099,-0.511,-0.5124,-0.514,-0.5169,-0.5179,-0.5169,-0.5207,-0.5208,-0.5197,-0.5194,-0.5185,-0.5194,-0.5198,-0.5199,-0.5199,0,-0.4789,-0.4819,-0.4855,-0.4898,-0.491,-0.4929,-0.4965,-0.4989,-0.5025,-0.5042,-0.5067,-0.509,-0.5118,-0.5124,-0.5164,-0.5157,-0.5174,-0.5191,-0.5193,-0.5197,-0.5203,-0.52,-0.5197,-0.5198,-0.5202,-0.5202,-0.5201,0,-0.477,-0.482,-0.4848,-0.4865,-0.4916,-0.4929,-0.4951,-0.4987,-0.5007,-0.5039,-0.5052,-0.5087,-0.5106,-0.5133,-0.5165,-0.5166,-0.5202,-0.521,-0.5217,-0.5217,-0.5224,-0.5223,-0.5224,-0.5234,-0.5234,-0.5234,-0.5234,0,-0.4772,-0.4793,-0.484,-0.4857,-0.4882,-0.4916,-0.494,-0.4965,-0.4997,-0.502,-0.5048,-0.5069,-0.5109,-0.5136,-0.5161,-0.5191,-0.52,-0.5215,-0.5221,-0.5212,-0.5211,-0.5225,-0.5225,-0.5235,-0.5234,-0.5234,-0.5234,0,-0.4755,-0.4787,-0.482,-0.4866,-0.4878,-0.4894,-0.4934,-0.4953,-0.4979,-0.5008,-0.5017,-0.5058,-0.5091,-0.5125,-0.517,-0.5187,-0.5216,-0.5225,-0.5204,-0.5208,-0.5213,-0.5212,-0.5223,-0.5227,-0.5234,-0.5234,-0.5234,0,-0.4754,-0.4771,-0.4818,-0.4836,-0.4857,-0.4885,-0.4906,-0.494,-0.4961,-0.5003,-0.5017,-0.5052,-0.5082,-0.5134,-0.5168,-0.5203,-0.5213,-0.5215,-0.5218,-0.5209,-0.5214,-0.5213,-0.5215,-0.5213,-0.5213,-0.5213,-0.5213,0,-0.4749,-0.4765,-0.4793,-0.4828,-0.4851,-0.488,-0.491,-0.4923,-0.4964,-0.4986,-0.502,-0.5043,-0.5089,-0.5124,-0.5163,-0.5187,-0.5207,-0.5211,-0.5215,-0.5206,-0.5193,-0.5201,-0.5201,-0.5211,-0.5211,-0.5211,-0.5211,-0.5211,-0.4741,-0.4757,-0.4794,-0.4825,-0.4851,-0.4879,-0.4899,-0.4927,-0.4956,-0.4995,-0.5014,-0.5049,-0.5086,-0.514,-0.5163,-0.5191,-0.5197,-0.5202,-0.5204,-0.5204,-0.5202,-0.5189,-0.5199,-0.5199,-0.5199,-0.5199,-0.5199,0,-0.4738,-0.4763,-0.4791,-0.4832,-0.4857,-0.4873,-0.4908,-0.4928,-0.4957,-0.4989,-0.5018,-0.5058,-0.5092,-0.5129,-0.5166,-0.5181,-0.5192,-0.519,-0.5189,-0.5195,-0.5195,-0.5188,-0.5181,-0.5181,-0.5181,-0.5181,-0.5181,-0.5181,-0.4739,-0.4769,-0.4788,-0.4831,-0.4857,-0.489,-0.4908,-0.4934,-0.496,-0.5003,-0.5032,-0.5055,-0.509,-0.513,-0.5162,-0.5173,-0.5185,-0.5181,-0.5194,-0.5193,-0.5195,-0.5196,-0.519,-0.5183,-0.5183,-0.5192,-0.5192,-0.5192]}]]